Location: East Horndon
(51.5667°N, 0.3500°E)
Time: 13:11:44
(UTC+00:00)

Aureole 3 Rocket - Visible Passes

Search period start: 14 February 2026 00:00
Search period end: 24 February 2026 00:00
Orbit: 397 x 1689 km, 82.5° (Epoch: 13 February)

Date Brightness Start Highest point End Pass type
(mag) Time Alt. Az. Time Alt. Az. Time Alt. Az.
14 Feb 6.7 06:01:51 10° SE 06:08:30 27° E 06:13:52 10° NNE visible
14 Feb 4.1 18:48:58 10° NNW 18:52:37 38° W 18:55:37 10° SSW visible
15 Feb 7.4 05:05:43 10° E 05:08:00 12° ENE 05:10:08 10° ENE visible
15 Feb 2.7 17:47:43 10° N 17:51:29 48° ENE 17:54:34 10° SSE visible
15 Feb 6.2 19:36:40 10° WNW 19:37:35 11° WNW 19:38:29 10° W visible
16 Feb 6.7 05:46:59 10° SE 05:53:13 26° E 05:58:14 10° NE visible
16 Feb 4.0 18:33:37 10° NNW 18:37:04 38° W 18:40:00 10° SSW visible
17 Feb 7.4 04:51:42 10° E 04:52:41 10° ENE 04:53:38 10° ENE visible
17 Feb 5.3 06:31:02 10° SSE 06:38:48 52° E 06:44:32 10° NNE visible
17 Feb 6.3 19:21:24 10° WNW 19:22:05 10° W 19:22:44 10° W visible
18 Feb 6.7 05:32:06 10° SE 05:37:53 24° E 05:42:33 10° NE visible
18 Feb 4.0 18:18:11 10° NNW 18:21:29 39° W 18:24:22 10° SSW visible
19 Feb 5.3 06:16:04 10° SSE 06:23:27 50° E 06:28:54 10° NNE visible
19 Feb 6.3 19:06:03 10° WNW 19:06:32 10° W 19:07:03 10° W visible
20 Feb 6.7 05:17:13 10° SE 05:22:30 22° E 05:26:49 10° NE visible
20 Feb 3.9 18:02:42 10° NNW 18:05:53 40° W 18:08:44 10° SSW visible
21 Feb 5.2 06:01:03 10° SSE 06:08:04 47° E 06:13:13 10° NNE visible
21 Feb 6.3 18:50:30 10° WNW 18:50:59 10° W 18:51:27 10° W visible
22 Feb 6.7 05:02:18 10° SE 05:07:05 20° E 05:11:02 10° NE visible
23 Feb 5.2 05:46:01 10° SSE 05:52:38 45° E 05:57:30 10° NNE visible
23 Feb 6.3 18:34:48 10° WNW 18:35:24 10° W 18:36:01 10° W visible
